Powrót do katalogu

STARLINK-6294

AktywnyŁącznośćVLEO
NORAD 57225·PAYLOAD·🇺🇸 United States

Wystrzelony Jul 7, 2023 z Vandenberg Space Force Base

Loading…

Następne Przeloty (najbliższe 24 godziny)

TLE

ŚwieżeSource: CelesTrak SupGP

Epoka: Sep 15, 2026, 02:40 UTC

1 57225C 23094H   26258.11159722 -.00038545  00000+0 -13959-2 0  2583
2 57225  43.0039  41.3665 0002011 272.8881 329.7844 15.27600052    13

Śledź STARLINK-6294 w czasie rzeczywistym z AllMySat

Download on the App Store